Date,TemperatureHighF,TemperatureAvgF,TemperatureLowF,DewpointHighF,DewpointAvgF,DewpointLowF,HumidityHigh,HumidityAvg,HumidityLow,PressureMaxIn,PressureMinIn,WindSpeedMaxMPH,WindSpeedAvgMPH,GustSpeedMaxMPH,PrecipitationSumIn
2013-3-1,43.9,40.9,36.5,31.2,28.4,25.0,68,61,50,29.91,29.75,10,1,10,0.00
2013-3-2,37.7,33.6,29.9,25.0,22.4,20.3,72,63,52,29.92,29.85,11,1,11,0.00
2013-3-3,41.4,34.0,28.5,22.5,19.9,16.8,73,57,41,29.95,29.82,15,2,15,0.00
2013-3-4,44.9,34.3,28.4,20.5,17.5,14.2,67,51,34,30.07,29.94,17,2,17,0.00
2013-3-5,53.6,39.7,28.3,31.1,21.0,12.8,77,50,22,30.12,29.83,9,1,9,0.00
2013-3-6,38.7,35.3,32.8,35.5,33.1,30.9,95,92,77,30.03,29.63,21,2,21,1.15
2013-3-7,49.2,41.5,31.9,33.0,29.2,26.3,86,63,43,30.18,30.02,15,2,17,0.00
2013-3-8,49.9,42.3,36.0,30.0,28.1,25.0,72,58,44,30.29,30.16,17,2,17,0.00
2013-3-9,63.3,46.0,34.0,31.2,26.7,21.8,71,50,23,30.38,30.27,9,1,9,0.00
2013-3-10,63.8,48.0,31.4,35.8,27.0,16.6,87,51,17,30.36,30.24,9,1,9,0.00
2013-3-11,60.9,51.5,42.5,50.3,44.6,35.8,92,78,64,30.28,29.95,11,1,11,0.00
2013-3-12,57.9,53.5,40.9,56.1,46.1,31.5,95,77,53,29.99,29.71,12,2,14,0.89
2013-3-13,50.9,41.6,32.3,31.7,26.8,19.2,88,58,30,30.09,29.92,15,2,15,0.00
2013-3-14,46.8,38.7,32.1,20.2,16.9,14.5,58,42,28,30.17,30.06,17,3,17,0.00
2013-3-18,37.4,37.3,37.3,36.0,36.0,36.0,95,95,95,29.93,29.91,2,0,2,0.33
2013-3-19,59.6,46.0,36.4,40.5,29.9,8.1,95,63,15,29.94,29.74,18,1,18,0.00
2013-3-20,53.1,44.5,33.5,23.9,14.7,8.9,48,30,20,30.03,29.79,15,2,15,0.00
2013-3-21,41.8,34.2,28.8,27.9,16.2,8.2,81,48,34,29.94,29.80,12,2,13,0.00
2013-3-22,49.4,36.7,26.9,21.1,16.6,10.7,59,45,31,30.03,29.91,12,2,12,0.00
2013-3-23,55.7,41.2,27.4,25.6,22.6,19.4,78,50,28,30.07,29.93,10,1,13,0.00
2013-3-24,43.7,37.5,31.4,32.4,25.1,21.9,94,62,44,30.03,29.68,4,0,6,0.04
2013-3-25,37.6,34.7,32.5,35.1,33.0,31.0,95,93,90,29.74,29.55,7,0,7,0.63
2013-3-26,49.6,41.3,32.5,35.4,31.1,25.3,95,70,40,30.01,29.73,13,1,13,0.10
2013-3-27,49.4,43.2,37.2,31.4,28.4,24.9,71,56,42,30.15,30.01,16,2,16,0.00
2013-3-28,48.0,42.4,33.8,31.7,29.3,26.5,75,60,46,30.25,30.12,15,1,15,0.00
2013-3-29,56.4,47.0,38.2,33.1,30.5,27.1,74,54,35,30.29,30.17,11,1,11,0.00
2013-3-30,62.4,48.6,36.6,34.0,29.3,23.3,80,51,23,30.25,30.13,9,0,9,0.00
2013-3-31,54.7,48.6,42.6,49.5,40.5,29.2,94,75,53,30.15,29.77,12,0,12,0.02